Time,TemperatureF,DewpointF,PressureIn,WindDirection,WindDirectionDegrees,WindSpeedMPH,WindSpeedGustMPH,Humidity,HourlyPrecipIn,Conditions,Clouds,dailyrainin,SoftwareType,DateUTC
2013-02-11 00:02:00,23.0,-99.9,30.34,South,190,2.0,3.0,-999,-99.99,,,-99.99,,2013-02-11 05:02:00,
2013-02-11 00:12:00,-999.0,-99.9,30.34,SSW,198,2.0,3.0,-999,-99.99,,,-99.99,,2013-02-11 05:12:00,
2013-02-11 00:22:00,-999.0,-99.9,30.34,SSW,205,3.0,3.0,-999,-99.99,,,-99.99,,2013-02-11 05:22:00,
2013-02-11 00:32:00,-999.0,-99.9,30.33,SSW,197,2.0,2.0,-999,-99.99,,,-99.99,,2013-02-11 05:32:00,
2013-02-11 00:42:00,23.0,-99.9,30.33,SSE,160,2.0,2.0,-999,-99.99,,,-99.99,,2013-02-11 05:42:00,
2013-02-11 00:53:00,-999.0,-99.9,30.32,ENE,69,2.0,2.0,-999,-99.99,,,-99.99,,2013-02-11 05:53:00,
2013-02-11 01:12:00,24.0,-99.9,30.32,SSW,212,2.0,3.0,-999,-99.99,,,-99.99,,2013-02-11 06:12:00,
2013-02-11 01:22:00,-999.0,-99.9,30.32,SW,225,2.0,4.0,-999,-99.99,,,-99.99,,2013-02-11 06:22:00,
2013-02-11 01:32:00,23.0,-99.9,30.32,South,175,3.0,4.0,-999,-99.99,,,-99.99,,2013-02-11 06:32:00,
2013-02-11 01:42:00,-999.0,-99.9,30.32,SSW,199,3.0,4.0,-999,-99.99,,,-99.99,,2013-02-11 06:42:00,
2013-02-11 01:52:00,-999.0,-99.9,30.31,SW,229,3.0,4.0,-999,-99.99,,,-99.99,,2013-02-11 06:52:00,
2013-02-11 02:02:00,-999.0,-99.9,30.30,SW,229,3.0,4.0,-999,-99.99,,,-99.99,,2013-02-11 07:02:00,
2013-02-11 02:12:00,23.0,-99.9,30.30,SW,232,4.0,4.0,-999,-99.99,,,-99.99,,2013-02-11 07:12:00,
2013-02-11 02:22:00,-999.0,-99.9,30.29,WSW,239,4.0,5.0,-999,-99.99,,,-99.99,,2013-02-11 07:22:00,
2013-02-11 02:32:00,-999.0,-99.9,30.28,SW,217,4.0,4.0,-999,-99.99,,,-99.99,,2013-02-11 07:32:00,
2013-02-11 02:42:00,24.0,-99.9,30.29,SW,224,4.0,4.0,-999,-99.99,,,-99.99,,2013-02-11 07:42:00,
2013-02-11 02:52:00,-999.0,-99.9,30.28,WSW,251,3.0,3.0,-999,-99.99,,,-99.99,,2013-02-11 07:52:00,
2013-02-11 03:01:00,25.0,-99.9,30.28,WSW,242,3.0,4.0,-999,-99.99,,,-99.99,,2013-02-11 08:01:00,
2013-02-11 03:11:00,-999.0,-99.9,30.28,WSW,248,3.0,4.0,-999,-99.99,,,-99.99,,2013-02-11 08:11:00,
2013-02-11 03:22:00,-999.0,-99.9,30.27,SW,234,3.0,4.0,-999,-99.99,,,-99.99,,2013-02-11 08:22:00,
2013-02-11 03:32:00,-999.0,-99.9,30.27,SSW,202,3.0,4.0,-999,-99.99,,,-99.99,,2013-02-11 08:32:00,
2013-02-11 03:42:00,-999.0,-99.9,30.27,South,182,2.0,4.0,-999,-99.99,,,-99.99,,2013-02-11 08:42:00,
2013-02-11 03:52:00,-999.0,-99.9,30.26,SSW,192,2.0,3.0,-999,-99.99,,,-99.99,,2013-02-11 08:52:00,
2013-02-11 04:02:00,-999.0,-99.9,30.26,South,182,2.0,3.0,-999,-99.99,,,-99.99,,2013-02-11 09:02:00,
2013-02-11 04:12:00,25.0,-99.9,30.26,SSW,197,2.0,3.0,-999,-99.99,,,-99.99,,2013-02-11 09:12:00,
2013-02-11 04:22:00,-999.0,-99.9,30.25,SSW,192,2.0,3.0,-999,-99.99,,,-99.99,,2013-02-11 09:22:00,
2013-02-11 04:32:00,25.0,-99.9,30.24,SSW,193,1.0,2.0,-999,-99.99,,,-99.99,,2013-02-11 09:32:00,
2013-02-11 04:42:00,-999.0,-99.9,30.24,SW,233,2.0,2.0,-999,-99.99,,,-99.99,,2013-02-11 09:42:00,
2013-02-11 04:52:00,-999.0,-99.9,30.23,WSW,252,0.0,1.0,-999,-99.99,,,-99.99,,2013-02-11 09:52:00,
2013-02-11 05:11:00,-999.0,-99.9,30.23,SW,220,0.0,1.0,-999,-99.99,,,-99.99,,2013-02-11 10:11:00,
2013-02-11 05:22:00,-999.0,-99.9,30.23,East,84,0.0,1.0,-999,-99.99,,,-99.99,,2013-02-11 10:22:00,
2013-02-11 05:42:00,26.0,-99.9,30.23,West,269,1.0,1.0,-999,-99.99,,,-99.99,,2013-02-11 10:42:00,
2013-02-11 05:52:00,-999.0,-99.9,30.23,WSW,251,1.0,1.0,-999,-99.99,,,-99.99,,2013-02-11 10:52:00,
2013-02-11 06:02:00,26.0,-99.9,30.23,SW,216,0.0,1.0,-999,-99.99,,,-99.99,,2013-02-11 11:02:00,
2013-02-11 06:11:00,-999.0,-99.9,30.22,South,189,2.0,2.0,-999,-99.99,,,-99.99,,2013-02-11 11:11:00,
2013-02-11 06:22:00,-999.0,-99.9,30.21,SSE,152,1.0,2.0,-999,-99.99,,,-99.99,,2013-02-11 11:22:00,
2013-02-11 06:32:00,27.0,-99.9,30.21,SE,134,1.0,2.0,-999,-99.99,,,-99.99,,2013-02-11 11:32:00,
2013-02-11 06:52:00,-999.0,-99.9,30.19,SSE,161,0.0,2.0,-999,-99.99,,,-99.99,,2013-02-11 11:52:00,
2013-02-11 07:03:00,-999.0,-99.9,30.19,WSW,248,2.0,2.0,-999,-99.99,,,-99.99,,2013-02-11 12:03:00,
2013-02-11 07:12:00,28.0,-99.9,30.19,WSW,254,2.0,2.0,-999,-99.99,,,-99.99,,2013-02-11 12:12:00,
2013-02-11 07:22:00,-999.0,-99.9,30.19,West,272,2.0,3.0,-999,-99.99,,,-99.99,,2013-02-11 12:22:00,
2013-02-11 07:32:00,-999.0,-99.9,30.19,WSW,255,1.0,2.0,-999,-99.99,,,-99.99,,2013-02-11 12:32:00,
2013-02-11 07:43:00,29.0,-99.9,30.18,SSW,213,0.0,1.0,-999,-99.99,,,-99.99,,2013-02-11 12:43:00,
2013-02-11 07:52:00,-999.0,-99.9,30.18,South,185,0.0,2.0,-999,-99.99,,,-99.99,,2013-02-11 12:52:00,
2013-02-11 08:02:00,29.0,-99.9,30.17,SE,142,1.0,2.0,-999,-99.99,,,-99.99,,2013-02-11 13:02:00,
2013-02-11 08:12:00,-999.0,-99.9,30.16,SSW,198,1.0,2.0,-999,-99.99,,,-99.99,,2013-02-11 13:12:00,
2013-02-11 08:22:00,-999.0,-99.9,30.16,SSE,163,2.0,2.0,-999,-99.99,,,-99.99,,2013-02-11 13:22:00,
2013-02-11 08:33:00,-999.0,-99.9,30.15,East,80,2.0,5.0,-999,-99.99,,,-99.99,,2013-02-11 13:33:00,
2013-02-11 08:42:00,29.0,-99.9,30.14,SE,124,1.0,4.0,-999,-99.99,,,-99.99,,2013-02-11 13:42:00,
2013-02-11 08:52:00,-999.0,-99.9,30.14,SSE,155,3.0,3.0,-999,-99.99,,,-99.99,,2013-02-11 13:52:00,
2013-02-11 09:02:00,-999.0,-99.9,30.13,South,187,2.0,3.0,-999,-99.99,,,-99.99,,2013-02-11 14:02:00,
2013-02-11 09:12:00,31.0,-99.9,30.12,South,181,4.0,5.0,-999,-99.99,,,-99.99,,2013-02-11 14:12:00,
2013-02-11 09:22:00,-999.0,-99.9,30.11,South,175,3.0,4.0,-999,-99.99,,,-99.99,,2013-02-11 14:22:00,
2013-02-11 09:33:00,32.0,-99.9,30.10,South,178,4.0,5.0,-999,-99.99,,,-99.99,,2013-02-11 14:33:00,
2013-02-11 09:42:00,33.0,-99.9,30.09,South,179,8.0,9.0,-999,-99.99,,,-99.99,,2013-02-11 14:42:00,
2013-02-11 09:53:00,35.0,-99.9,30.08,South,174,10.0,13.0,-999,-99.99,,,-99.99,,2013-02-11 14:53:00,
2013-02-11 10:02:00,36.0,-99.9,30.06,South,178,10.0,13.0,-999,-99.99,,,-99.99,,2013-02-11 15:02:00,
2013-02-11 10:12:00,37.0,-99.9,30.05,South,180,10.0,13.0,-999,-99.99,,,-99.99,,2013-02-11 15:12:00,
2013-02-11 10:22:00,37.0,-99.9,30.04,South,180,14.0,19.0,-999,-99.99,,,-99.99,,2013-02-11 15:22:00,
2013-02-11 10:32:00,37.0,-99.9,30.03,South,180,16.0,20.0,-999,-99.99,,,-99.99,,2013-02-11 15:32:00,
2013-02-11 10:42:00,37.0,-99.9,30.03,South,178,14.0,19.0,-999,-99.99,,,-99.99,,2013-02-11 15:42:00,
2013-02-11 10:52:00,38.0,-99.9,30.01,South,183,16.0,20.0,-999,-99.99,,,-99.99,,2013-02-11 15:52:00,
2013-02-11 11:02:00,38.0,-99.9,30.01,South,180,16.0,20.0,-999,-99.99,,,-99.99,,2013-02-11 16:02:00,
2013-02-11 11:12:00,38.0,-99.9,30.00,South,178,13.0,18.0,-999,-99.99,,,-99.99,,2013-02-11 16:12:00,
2013-02-11 11:22:00,38.0,-99.9,29.99,South,183,13.0,18.0,-999,-99.99,,,-99.99,,2013-02-11 16:22:00,
2013-02-11 11:32:00,38.0,-99.9,29.98,South,180,11.0,16.0,-999,-99.99,,,-99.99,,2013-02-11 16:32:00,
2013-02-11 11:43:00,39.0,-99.9,29.97,South,181,12.0,15.0,-999,-99.99,,,-99.99,,2013-02-11 16:43:00,
2013-02-11 11:53:00,39.0,-99.9,29.96,South,181,12.0,17.0,-999,-99.99,,,-99.99,,2013-02-11 16:53:00,
2013-02-11 12:02:00,40.0,-99.9,29.93,South,183,13.0,17.0,-999,-99.99,,,-99.99,,2013-02-11 17:02:00,
2013-02-11 12:12:00,40.0,-99.9,29.93,South,178,12.0,17.0,-999,-99.99,,,-99.99,,2013-02-11 17:12:00,
2013-02-11 12:22:00,40.0,-99.9,29.92,South,183,11.0,13.0,-999,-99.99,,,-99.99,,2013-02-11 17:22:00,
2013-02-11 12:32:00,40.0,-99.9,29.91,South,177,8.0,14.0,-999,-99.99,,,-99.99,,2013-02-11 17:32:00,
2013-02-11 12:42:00,40.0,-99.9,29.89,South,172,8.0,11.0,-999,-99.99,,,-99.99,,2013-02-11 17:42:00,
2013-02-11 12:53:00,42.0,-99.9,29.88,SSW,194,11.0,15.0,-999,-99.99,,,-99.99,,2013-02-11 17:53:00,
2013-02-11 13:02:00,42.0,-99.9,29.88,SSW,196,9.0,12.0,-999,-99.99,,,-99.99,,2013-02-11 18:02:00,
2013-02-11 13:12:00,42.0,-99.9,29.87,South,188,11.0,17.0,-999,-99.99,,,-99.99,,2013-02-11 18:12:00,
2013-02-11 13:22:00,43.0,-99.9,29.86,SSW,196,15.0,20.0,-999,-99.99,,,-99.99,,2013-02-11 18:22:00,
2013-02-11 13:32:00,44.0,-99.9,29.85,South,186,11.0,19.0,-999,-99.99,,,-99.99,,2013-02-11 18:32:00,
2013-02-11 13:42:00,43.0,-99.9,29.84,SSW,195,10.0,15.0,-999,-99.99,,,-99.99,,2013-02-11 18:42:00,
2013-02-11 13:54:00,44.0,-99.9,29.82,South,188,9.0,16.0,-999,-99.99,,,-99.99,,2013-02-11 18:54:00,
2013-02-11 14:02:00,44.0,-99.9,29.82,South,185,10.0,13.0,-999,-99.99,,,-99.99,,2013-02-11 19:02:00,
2013-02-11 14:12:00,44.0,-99.9,29.81,SSW,202,6.0,8.0,-999,-99.99,,,-99.99,,2013-02-11 19:12:00,
2013-02-11 14:22:00,44.0,-99.9,29.80,South,181,9.0,10.0,-999,-99.99,,,-99.99,,2013-02-11 19:22:00,
2013-02-11 14:32:00,44.0,-99.9,29.80,South,187,4.0,6.0,-999,-99.99,,,-99.99,,2013-02-11 19:32:00,
2013-02-11 14:42:00,43.0,-99.9,29.79,South,172,7.0,8.0,-999,-99.99,,,-99.99,,2013-02-11 19:42:00,
2013-02-11 14:52:00,44.0,-99.9,29.78,South,182,9.0,11.0,-999,-99.99,,,-99.99,,2013-02-11 19:52:00,
2013-02-11 15:02:00,43.0,-99.9,29.77,South,178,9.0,11.0,-999,-99.99,,,-99.99,,2013-02-11 20:02:00,
2013-02-11 15:12:00,43.0,-99.9,29.76,South,178,8.0,11.0,-999,-99.99,,,-99.99,,2013-02-11 20:12:00,
2013-02-11 15:22:00,43.0,-99.9,29.76,South,188,8.0,10.0,-999,-99.99,,,-99.99,,2013-02-11 20:22:00,
2013-02-11 15:32:00,43.0,-99.9,29.76,South,179,7.0,8.0,-999,-99.99,,,-99.99,,2013-02-11 20:32:00,
2013-02-11 15:42:00,42.0,-99.9,29.75,South,176,9.0,9.0,-999,-99.99,,,-99.99,,2013-02-11 20:42:00,
2013-02-11 15:52:00,41.0,-99.9,29.75,South,188,4.0,10.0,-999,-99.99,,,-99.99,,2013-02-11 20:52:00,
2013-02-11 16:02:00,41.0,-99.9,29.74,South,175,4.0,5.0,-999,-99.99,,,-99.99,,2013-02-11 21:02:00,
2013-02-11 16:12:00,41.0,-99.9,29.73,SSE,168,3.0,4.0,-999,-99.99,,,-99.99,,2013-02-11 21:12:00,
2013-02-11 16:22:00,42.0,-99.9,29.73,South,182,5.0,6.0,-999,-99.99,,,-99.99,,2013-02-11 21:22:00,
2013-02-11 16:32:00,41.0,-99.9,29.72,South,183,6.0,6.0,-999,-99.99,,,-99.99,,2013-02-11 21:32:00,
2013-02-11 16:42:00,42.0,-99.9,29.72,South,185,5.0,7.0,-999,-99.99,,,-99.99,,2013-02-11 21:42:00,
2013-02-11 16:52:00,42.0,-99.9,29.71,SSW,202,7.0,9.0,-999,-99.99,,,-99.99,,2013-02-11 21:52:00,
2013-02-11 17:02:00,45.0,-99.9,29.71,SSW,202,6.0,10.0,-999,-99.99,,,-99.99,,2013-02-11 22:02:00,
2013-02-11 17:12:00,45.0,-99.9,29.70,SSW,203,6.0,9.0,-999,-99.99,,,-99.99,,2013-02-11 22:12:00,
2013-02-11 17:22:00,45.0,-99.9,29.69,SSW,195,6.0,9.0,-999,-99.99,,,-99.99,,2013-02-11 22:22:00,
2013-02-11 17:32:00,46.0,-99.9,29.68,SSW,192,5.0,7.0,-999,-99.99,,,-99.99,,2013-02-11 22:32:00,
2013-02-11 17:42:00,45.0,-99.9,29.68,South,191,5.0,8.0,-999,-99.99,,,-99.99,,2013-02-11 22:42:00,
2013-02-11 17:52:00,45.0,-99.9,29.68,SSW,192,4.0,6.0,-999,-99.99,,,-99.99,,2013-02-11 22:52:00,
2013-02-11 18:02:00,45.0,-99.9,29.67,South,187,6.0,8.0,-999,-99.99,,,-99.99,,2013-02-11 23:02:00,
2013-02-11 18:12:00,45.0,-99.9,29.67,South,184,6.0,8.0,-999,-99.99,,,-99.99,,2013-02-11 23:12:00,
2013-02-11 18:22:00,45.0,-99.9,29.67,South,181,4.0,5.0,-999,-99.99,,,-99.99,,2013-02-11 23:22:00,
2013-02-11 18:32:00,44.0,-99.9,29.68,South,179,5.0,6.0,-999,-99.99,,,-99.99,,2013-02-11 23:32:00,
2013-02-11 18:42:00,43.0,-99.9,29.68,South,174,5.0,7.0,-999,-99.99,,,-99.99,,2013-02-11 23:42:00,
2013-02-11 18:53:00,43.0,-99.9,29.67,South,175,7.0,8.0,-999,-99.99,,,-99.99,,2013-02-11 23:53:00,
2013-02-11 19:02:00,43.0,-99.9,29.66,South,177,6.0,7.0,-999,-99.99,,,-99.99,,2013-02-12 00:02:00,
2013-02-11 19:12:00,43.0,-99.9,29.66,South,181,7.0,9.0,-999,-99.99,,,-99.99,,2013-02-12 00:12:00,
2013-02-11 19:22:00,43.0,-99.9,29.66,South,180,6.0,7.0,-999,-99.99,,,-99.99,,2013-02-12 00:22:00,
2013-02-11 19:32:00,43.0,-99.9,29.66,South,175,4.0,5.0,-999,-99.99,,,-99.99,,2013-02-12 00:32:00,
2013-02-11 19:43:00,43.0,-99.9,29.65,South,179,4.0,6.0,-999,-99.99,,,-99.99,,2013-02-12 00:43:00,
2013-02-11 19:52:00,43.0,-99.9,29.64,South,185,6.0,7.0,-999,-99.99,,,-99.99,,2013-02-12 00:52:00,
2013-02-11 20:02:00,43.0,-99.9,29.64,South,182,8.0,9.0,-999,-99.99,,,-99.99,,2013-02-12 01:02:00,
2013-02-11 20:12:00,42.0,-99.9,29.64,South,186,6.0,7.0,-999,-99.99,,,-99.99,,2013-02-12 01:12:00,
2013-02-11 20:22:00,41.0,-99.9,29.63,South,179,7.0,8.0,-999,-99.99,,,-99.99,,2013-02-12 01:22:00,
2013-02-11 20:32:00,41.0,-99.9,29.63,South,188,5.0,6.0,-999,-99.99,,,-99.99,,2013-02-12 01:32:00,
2013-02-11 20:42:00,41.0,-99.9,29.62,SSW,196,5.0,6.0,-999,-99.99,,,-99.99,,2013-02-12 01:42:00,
2013-02-11 20:52:00,42.0,-99.9,29.62,SSW,198,6.0,7.0,-999,-99.99,,,-99.99,,2013-02-12 01:52:00,
2013-02-11 21:02:00,42.0,-99.9,29.62,SSW,205,6.0,7.0,-999,-99.99,,,-99.99,,2013-02-12 02:02:00,
2013-02-11 21:12:00,42.0,-99.9,29.61,SSW,195,5.0,7.0,-999,-99.99,,,-99.99,,2013-02-12 02:12:00,
2013-02-11 21:22:00,41.0,-99.9,29.62,SSW,197,5.0,6.0,-999,-99.99,,,-99.99,,2013-02-12 02:22:00,
2013-02-11 21:32:00,41.0,-99.9,29.62,SSW,195,5.0,7.0,-999,-99.99,,,-99.99,,2013-02-12 02:32:00,
2013-02-11 21:42:00,41.0,-99.9,29.61,South,183,5.0,6.0,-999,-99.99,,,-99.99,,2013-02-12 02:42:00,
2013-02-11 21:53:00,41.0,-99.9,29.61,South,182,6.0,7.0,-999,-99.99,,,-99.99,,2013-02-12 02:53:00,
2013-02-11 22:02:00,41.0,-99.9,29.61,South,184,6.0,6.0,-999,-99.99,,,-99.99,,2013-02-12 03:02:00,
2013-02-11 22:11:00,41.0,-99.9,29.60,South,182,6.0,7.0,-999,-99.99,,,-99.99,,2013-02-12 03:11:00,
2013-02-11 22:21:00,40.0,-99.9,29.60,South,186,5.0,7.0,-999,-99.99,,,-99.99,,2013-02-12 03:21:00,
2013-02-11 22:32:00,41.0,-99.9,29.60,South,191,4.0,6.0,-999,-99.99,,,-99.99,,2013-02-12 03:32:00,
2013-02-11 22:42:00,41.0,-99.9,29.59,South,183,6.0,6.0,-999,-99.99,,,-99.99,,2013-02-12 03:42:00,
2013-02-11 22:52:00,41.0,-99.9,29.59,South,186,8.0,9.0,-999,-99.99,,,-99.99,,2013-02-12 03:52:00,
2013-02-11 23:01:00,41.0,-99.9,29.59,SSW,195,5.0,9.0,-999,-99.99,,,-99.99,,2013-02-12 04:01:00,
2013-02-11 23:11:00,41.0,-99.9,29.59,SW,214,6.0,7.0,-999,-99.99,,,-99.99,,2013-02-12 04:11:00,
2013-02-11 23:22:00,42.0,-99.9,29.59,SW,233,5.0,7.0,-999,-99.99,,,-99.99,,2013-02-12 04:22:00,
2013-02-11 23:32:00,44.0,-99.9,29.59,WNW,284,9.0,14.0,-999,-99.99,,,-99.99,,2013-02-12 04:32:00,
2013-02-11 23:42:00,44.0,-99.9,29.58,West,269,7.0,9.0,-999,-99.99,,,-99.99,,2013-02-12 04:42:00,
2013-02-11 23:52:00,43.0,-99.9,29.60,WNW,285,6.0,9.0,-999,-99.99,,,-99.99,,2013-02-12 04:52:00,